Location: Poznań
(52.4062°N, 16.9234°E)
Time: 13:29:43
(UTC+01:00)

ISS - Pass Details

Date: 01 February 2019
Orbit: 403 x 411 km, 51.6° (Epoch: 20 February)

Event Time Altitude Azimuth Distance (km) Brightness Sun altitude
Rises 17:19:05 0° 257° (WSW) 2,331 2.5 -6.5°
Reaches altitude 10° 17:21:10 10° 256° (WSW) 1,473 0.8 -6.8°
Maximum altitude 17:24:27 73° 172° (S) 433 -3.7 -7.3°
Drops below altitude 10° 17:27:46 10° 87° (E) 1,480 -1.6 -7.8°
Enters shadow 17:27:48 10° 87° (E) 1,495 -1.6 -7.8°
